Theta_e
324 324 324 324 325 326 326 325 325 326 326 326 326 327 327 327 327 329 327 327 327 328 328 329 329 329 329 330 330 329 324 305 306 304 304 304 317 328 329 332 333 335 333 315 305 303 300 300 300 301 301 303 302 303 305 306 301 297 292 287 288 290 288 291 289 289 291 291 293 293 293 292 291 292 293 294 291 291 290 290 291 293 292 293 293 294 294 295
324 324 323 324 324 325 325 324 325 325 326 326 326 326 327 327 327 327 326 327 327 327 327 329 329 329 330 329 329 327 314 306 303 303 305 316 328 331 331 333 334 334 324 305 304 302 300 300 299 300 299 299 302 302 304 304 300 294 289 289 290 287 293 292 292 291 291 293 293 292 292 291 292 292 292 290 288 289 288 288 289 289 290 291 291 291 291 292
323 323 323 323 324 324 324 324 324 325 326 326 327 326 326 325 326 326 326 326 327 327 328 328 329 329 329 329 328 325 316 308 303 301 305 330 330 331 334 336 335 334 312 307 308 305 302 301 299 299 297 299 298 300 300 300 301 298 292 288 288 290 293 293 293 294 294 293 292 293 293 292 294 293 293 290 288 288 287 286 286 287 287 288 289 290 290 290
323 323 323 323 323 323 323 324 324 325 325 326 326 326 325 325 325 326 326 326 326 327 327 328 329 329 327 326 328 317 310 308 302 303 306 325 334 334 337 335 334 330 315 311 308 307 303 302 300 300 301 297 297 299 298 299 296 297 290 289 293 292 291 294 293 294 294 292 292 291 292 291 294 293 293 290 289 288 287 289 288 287 287 288 289 289 289 289
322 322 322 322 322 322 323 323 324 324 325 325 326 326 324 324 325 325 325 326 326 327 328 329 328 328 327 325 324 315 307 300 301 306 310 330 331 335 332 332 333 318 314 311 307 306 303 300 299 298 298 295 293 296 295 297 299 294 293 291 292 292 291 293 293 293 292 292 290 290 291 293 294 292 292 292 288 287 289 291 289 290 289 289 288 288 288 288
322 322 322 321 321 322 322 322 323 323 324 325 325 326 325 324 324 325 324 325 326 327 328 328 328 327 327 324 316 314 306 293 306 305 325 328 330 332 329 331 324 316 312 302 303 302 302 301 297 296 293 292 292 294 296 296 298 292 288 291 292 292 293 292 292 292 291 291 290 291 294 291 289 289 290 290 289 289 291 291 290 290 290 290 289 288 288 288
321 321 321 320 321 321 321 322 323 324 324 323 324 326 327 327 324 324 324 324 326 327 327 329 328 326 324 324 315 308 301 302 304 308 322 327 328 325 327 322 316 305 304 303 302 300 300 299 297 296 294 292 294 293 296 296 295 293 291 290 295 294 294 293 293 291 289 290 293 293 292 291 291 289 290 287 289 290 291 291 290 290 290 289 288 288 288 288
320 320 320 320 320 320 320 322 322 322 322 324 324 325 325 327 324 324 324 324 325 326 327 328 327 324 326 317 316 304 304 304 306 309 319 325 313 309 314 308 306 305 305 301 301 299 299 298 297 296 292 292 295 295 295 296 291 294 292 293 293 294 294 292 290 290 291 292 290 289 291 291 291 290 288 287 289 290 290 290 289 289 288 287 287 287 287 287
320 320 320 319 319 319 320 321 322 322 323 323 324 324 325 325 323 324 324 324 325 326 327 327 325 324 323 311 303 300 299 308 308 308 309 308 305 303 305 306 305 304 302 302 301 301 299 297 299 298 293 294 297 294 294 294 288 294 295 293 292 294 293 293 291 291 291 293 290 291 288 289 289 291 287 288 288 289 289 289 288 287 287 286 287 287 287 287
320 320 320 319 319 319 320 320 321 322 321 322 323 324 326 324 323 323 324 324 325 326 326 327 325 322 313 308 302 298 304 311 308 308 307 306 303 303 304 305 305 303 305 304 302 300 299 300 299 302 299 297 296 294 294 292 291 294 293 293 293 293 293 294 293 293 291 292 291 290 287 288 290 289 284 288 289 289 288 287 286 287 286 287 287 287 286 286
320 320 320 319 319 319 320 320 320 321 321 322 322 324 324 324 323 323 324 324 325 325 326 327 324 321 310 306 299 296 309 309 307 306 308 307 306 304 305 304 305 304 304 303 302 302 301 302 302 301 300 296 296 292 293 294 294 294 293 292 290 290 291 292 291 291 292 293 290 289 289 289 290 291 287 289 289 289 287 286 286 286 286 286 286 286 287 286
319 319 320 320 319 319 319 320 320 320 321 321 322 323 324 323 323 323 323 324 325 326 327 327 324 312 307 301 297 301 308 309 305 306 308 308 306 307 305 304 304 305 303 303 304 304 303 302 301 299 293 299 291 294 294 295 295 294 292 291 288 287 290 292 292 292 292 292 291 292 288 287 288 289 289 290 290 288 286 286 286 285 286 286 286 286 285 285
319 319 319 320 319 319 319 319 320 320 320 321 322 323 323 322 322 323 323 324 324 327 327 327 321 315 306 300 301 309 308 305 305 308 308 305 307 306 306 306 305 304 304 302 302 304 302 301 299 296 299 295 292 291 295 296 294 293 291 288 289 285 286 289 292 291 292 292 292 292 285 283 289 290 289 290 289 287 286 285 285 285 285 285 284 285 285 285
318 318 319 319 319 319 319 319 320 319 319 321 321 322 323 321 322 323 324 325 326 327 326 328 313 312 305 299 307 309 309 303 308 307 308 306 309 308 309 306 306 302 305 303 303 302 302 299 299 298 299 296 294 298 295 290 290 289 290 287 284 286 284 289 291 291 291 293 293 291 286 284 284 287 289 289 289 287 285 285 285 285 284 284 284 284 285 285
318 318 318 319 319 318 318 319 318 318 319 320 321 322 321 320 322 323 326 326 326 327 326 320 312 306 298 302 307 308 323 307 307 305 308 304 305 307 304 302 303 303 301 304 304 303 301 302 299 296 295 296 296 293 289 287 287 288 287 283 282 284 282 288 290 290 290 291 290 290 285 285 286 288 289 289 288 287 285 285 285 284 284 283 283 283 284 284
318 318 318 318 319 318 318 317 318 318 318 319 319 319 319 320 321 324 326 326 324 325 317 318 315 300 297 298 304 319 309 306 306 305 306 307 302 302 303 303 302 302 302 301 301 299 299 299 295 295 293 292 287 284 284 285 285 284 287 282 284 283 282 286 291 289 290 292 292 291 285 283 286 287 289 288 287 286 285 285 284 284 284 284 283 283 283 283
319 318 318 318 319 318 318 318 317 318 319 318 318 319 320 320 323 324 323 324 315 318 315 307 307 304 299 305 308 305 303 305 308 308 306 306 304 302 300 300 299 298 299 300 300 300 298 296 295 293 291 288 287 285 285 279 278 280 283 285 282 283 283 282 284 287 290 290 288 289 286 286 284 288 288 288 287 285 285 284 284 284 283 283 283 283 282 282
319 318 318 318 319 319 318 317 317 318 318 317 319 319 317 322 323 322 316 312 310 313 315 311 304 302 295 302 299 299 305 304 307 306 305 305 302 301 300 298 297 296 297 296 298 296 297 294 292 291 287 286 284 282 283 280 283 282 282 282 284 282 282 284 284 285 291 290 288 287 285 287 285 287 288 288 287 285 285 285 284 282 282 282 282 282 282 282
317 318 318 318 319 318 318 317 318 318 318 319 320 321 320 319 308 304 302 303 304 298 298 303 300 290 290 297 300 304 305 307 306 304 305 302 302 301 300 299 298 298 295 293 295 297 293 291 289 285 288 285 285 282 282 285 284 285 284 283 281 281 283 282 285 285 289 287 287 286 287 288 285 286 287 287 286 285 285 283 282 282 281 282 282 282 282 282
318 319 318 318 319 318 317 318 318 317 318 315 309 303 299 299 295 299 299 301 299 296 297 298 299 300 302 301 303 306 308 304 301 303 303 301 302 298 298 298 296 295 293 294 292 295 292 287 287 286 289 285 285 285 285 285 286 286 285 283 283 282 284 285 286 287 288 287 286 287 287 286 285 286 287 288 285 284 283 283 282 281 281 281 281 282 282 282
319 319 318 318 319 318 318 317 317 317 318 310 301 294 293 290 291 290 291 296 297 297 297 298 300 300 301 302 302 299 300 299 300 300 301 302 299 297 296 296 290 295 292 293 294 294 290 287 286 289 290 286 285 285 286 287 285 286 284 282 283 282 283 287 287 287 286 286 282 283 284 285 287 286 287 286 284 283 283 283 282 281 281 281 281 281 281 282
318 319 318 318 318 318 317 317 317 317 317 302 300 293 294 295 297 296 296 294 297 297 299 299 299 301 301 301 303 299 299 296 297 300 300 302 299 295 293 292 291 291 290 290 290 285 286 287 292 291 289 285 286 286 286 286 286 285 283 282 281 283 283 286 286 286 287 286 284 283 283 285 286 286 286 285 285 286 285 285 283 282 281 281 281 281 281 281
318 318 318 318 318 318 317 317 316 317 302 299 298 299 299 303 301 301 301 294 294 297 301 300 301 297 299 301 301 301 296 293 293 297 298 299 296 296 292 291 290 289 291 289 290 285 288 285 289 289 285 288 286 286 286 286 286 283 283 282 282 283 282 281 283 283 285 285 282 282 284 285 286 287 286 286 286 284 284 284 282 282 281 281 281 281 281 281
317 318 318 318 318 317 317 316 316 307 300 300 299 299 303 301 301 304 300 294 292 293 299 300 301 299 298 299 301 297 295 295 294 295 298 296 293 294 291 287 287 289 290 287 287 288 290 292 290 286 286 287 286 286 285 284 283 282 284 282 282 283 283 282 282 283 283 284 284 283 283 283 285 286 287 283 283 282 283 282 281 281 282 282 282 282 281 281
317 318 318 317 316 316 315 316 302 301 301 302 299 301 300 300 300 303 299 290 286 290 301 300 301 303 301 305 303 298 295 293 293 295 295 295 291 293 292 291 289 288 286 286 285 286 286 287 287 287 287 287 287 285 285 285 282 280 282 286 286 285 284 283 281 282 279 279 281 281 278 275 278 283 285 281 280 281 281 281 280 281 281 280 280 281 281 282
317 318 318 317 316 315 316 307 303 303 302 301 304 303 299 298 298 300 291 283 283 287 298 295 307 301 305 298 299 296 297 293 296 295 299 295 298 295 294 291 293 290 286 286 288 286 288 288 288 287 286 286 286 284 283 286 282 282 284 284 286 284 283 282 281 282 276 275 282 282 277 277 278 280 282 280 280 281 279 280 280 280 280 280 280 281 281 281
317 318 317 316 315 314 305 302 305 303 303 302 302 300 300 299 300 302 293 281 282 289 293 300 299 298 304 299 297 297 290 290 295 293 295 296 296 297 292 288 289 289 288 286 285 285 286 287 285 286 286 285 284 283 283 287 283 281 283 281 282 282 283 281 282 282 279 280 281 281 279 276 277 280 282 282 280 280 279 279 280 280 280 280 280 280 280 280
318 318 317 315 314 313 300 301 302 301 299 304 303 297 299 299 300 300 285 275 274 296 296 296 301 306 302 297 297 293 293 296 292 293 293 294 296 292 293 288 290 288 287 288 284 285 286 284 285 285 285 283 284 283 284 287 284 282 284 282 284 282 282 281 281 280 279 278 277 279 280 276 275 277 279 280 278 278 278 279 279 280 280 279 280 280 280 280
318 317 315 314 313 312 303 302 301 300 303 300 300 300 303 299 299 288 281 275 286 293 304 296 305 301 297 297 295 292 293 293 292 294 293 294 295 292 290 288 288 286 287 290 288 285 287 288 286 287 285 285 285 282 284 287 285 285 283 283 282 283 282 282 279 279 277 274 275 279 279 273 277 278 276 278 278 279 279 280 280 280 280 279 280 280 280 280
318 317 314 312 308 302 299 300 302 304 302 300 300 300 301 300 295 286 280 274 294 290 295 297 296 293 294 292 292 292 292 292 291 291 291 290 291 292 291 291 287 288 287 284 286 286 288 291 290 288 286 286 282 283 283 286 285 284 282 283 280 279 279 279 278 276 271 269 277 280 279 279 275 277 278 276 278 281 282 281 281 280 279 279 280 280 280 280
317 316 313 311 304 302 298 295 301 302 301 299 300 300 297 288 282 278 272 280 290 292 294 293 291 294 292 290 289 291 290 290 292 290 290 291 290 288 290 290 287 281 279 279 284 281 286 287 287 284 288 286 284 285 284 283 283 284 282 280 280 280 275 273 268 273 269 270 274 276 278 279 271 276 278 282 278 280 283 281 281 280 279 279 279 280 279 279
316 315 314 307 305 303 295 295 302 300 299 300 300 293 287 285 283 281 277 292 286 287 288 288 290 290 290 291 288 287 288 291 289 289 287 284 285 286 286 285 280 282 279 279 283 282 284 284 283 286 289 287 284 283 284 281 282 282 279 276 276 272 271 270 269 269 268 273 275 274 276 275 276 282 279 281 282 279 281 283 282 281 280 279 279 279 279 279
316 314 312 310 306 300 298 301 303 300 299 301 295 290 286 281 274 280 282 286 283 289 289 290 290 290 289 289 287 287 289 288 289 288 287 286 286 284 281 287 284 288 282 280 281 281 284 281 284 285 286 288 286 283 280 282 281 280 281 275 273 270 266 269 269 266 267 274 275 275 277 274 281 281 284 286 285 283 281 283 283 282 280 280 280 279 279 279
316 313 309 307 304 303 304 302 302 300 300 297 293 291 282 277 275 289 284 284 285 291 292 290 290 288 288 288 285 287 288 287 287 287 289 283 285 283 286 286 286 289 286 280 282 278 276 277 282 285 284 285 288 286 284 279 280 281 280 281 279 273 273 275 269 273 279 277 274 275 271 270 271 277 277 276 276 278 281 280 280 280 280 280 279 278 279 278
315 310 309 308 305 303 303 302 300 301 297 294 287 286 280 280 280 281 282 284 286 290 291 290 290 287 287 287 285 287 289 288 286 286 286 285 284 281 282 285 287 285 283 283 282 277 281 281 281 284 283 286 285 284 282 281 282 280 278 279 276 278 279 277 271 269 270 271 271 269 274 275 279 277 277 276 276 277 277 277 278 278 278 278 278 278 278 278
311 308 308 306 304 302 304 304 300 301 296 289 284 281 283 284 280 281 284 290 290 290 289 287 284 286 283 281 282 287 291 288 287 287 283 284 283 283 282 283 287 290 287 285 282 279 280 278 281 282 282 284 282 281 284 284 279 279 279 276 278 280 282 278 272 272 272 271 273 273 274 278 279 279 275 277 276 276 276 276 277 278 278 277 277 278 278 278
307 308 304 305 304 303 304 305 304 300 293 286 284 284 286 286 283 284 294 292 291 290 286 285 283 288 283 284 285 285 288 288 285 284 283 282 284 284 283 285 287 289 292 291 284 284 280 281 281 281 283 283 280 281 281 279 283 279 274 278 280 281 281 276 274 273 273 271 275 273 276 279 276 279 274 275 275 275 275 275 276 277 277 276 278 277 278 278
307 306 307 306 306 304 305 304 303 298 291 285 283 289 284 288 289 291 290 290 291 289 286 285 284 288 283 283 283 283 285 287 282 285 279 282 282 285 283 287 288 291 292 288 288 285 283 280 280 279 280 281 281 283 282 282 282 279 278 282 280 276 275 275 273 271 270 272 273 277 276 278 280 281 273 273 274 275 275 275 275 276 276 277 277 277 278 278
307 305 300 307 307 307 305 306 302 297 289 283 284 285 287 287 291 290 291 293 291 289 287 286 286 286 285 282 282 284 285 284 283 283 282 282 283 286 289 290 289 285 287 289 286 283 284 281 280 278 279 280 280 281 278 279 281 281 281 279 282 279 278 273 277 276 277 274 275 277 277 279 281 281 278 277 275 277 275 275 275 277 277 277 277 277 277 277
303 299 299 304 306 307 307 305 298 292 287 285 286 286 286 288 292 293 291 294 290 290 286 285 285 285 285 286 285 285 285 284 283 283 283 284 285 288 288 291 289 285 283 286 285 284 283 281 276 278 278 280 277 280 280 280 277 277 277 275 276 277 280 280 278 276 277 274 275 275 274 281 280 284 281 280 278 278 276 276 277 277 277 277 277 278 278 278
305 300 299 304 306 307 306 300 294 288 287 288 287 285 288 288 290 292 294 293 293 295 291 287 287 286 285 285 287 284 285 283 283 283 283 282 286 283 288 290 288 286 284 285 284 283 280 279 280 277 276 277 280 282 284 283 284 279 279 278 280 277 275 275 275 278 277 277 274 274 275 283 282 280 283 282 280 279 278 278 278 277 277 277 278 278 278 278
301 292 297 305 307 307 301 293 293 291 285 287 287 289 288 298 291 290 291 294 293 292 293 291 287 288 287 288 287 286 286 282 283 284 283 286 287 288 287 291 289 288 288 283 284 283 283 277 278 277 279 281 281 282 279 281 281 280 281 281 282 282 280 278 275 277 273 277 278 276 275 279 282 281 280 281 281 279 279 279 278 277 277 277 277 277 277 277
299 296 302 305 308 305 299 292 293 291 290 291 292 291 290 289 288 290 292 291 291 293 291 291 290 289 288 289 288 286 288 285 284 284 284 286 287 290 287 289 287 286 287 281 283 282 290 279 274 281 281 278 277 278 278 278 281 280 280 279 280 279 282 282 282 280 276 276 274 274 272 278 281 280 279 279 279 280 279 279 278 277 277 277 277 277 277 276
300 299 298 306 308 304 296 286 286 289 291 290 291 291 292 291 290 287 290 292 293 288 291 290 289 293 291 290 289 288 288 285 287 287 287 286 285 284 283 287 289 287 289 285 287 286 280 280 279 275 274 279 277 276 278 277 277 276 276 279 281 283 283 282 279 279 274 278 276 276 272 279 282 278 277 277 277 277 277 277 278 277 277 277 277 277 277 277
300 301 299 301 304 302 292 292 287 287 289 289 289 288 289 289 292 293 292 291 293 288 289 289 294 289 289 287 289 290 289 291 287 288 290 286 288 284 282 285 288 288 287 286 293 289 284 280 280 273 274 273 274 272 272 272 277 276 276 277 280 280 281 279 276 278 274 278 278 275 275 283 277 277 276 276 276 276 277 277 277 278 277 276 277 277 276 276
296 289 296 295 299 298 297 297 293 288 285 286 286 288 290 288 290 291 293 292 293 288 292 289 288 290 289 286 286 288 288 290 290 284 285 284 285 282 280 280 283 285 287 291 289 289 277 279 282 284 281 279 282 283 281 279 276 275 275 277 279 280 281 282 281 278 275 278 277 279 280 281 283 278 275 275 276 276 276 275 276 276 276 277 277 277 276 276
299 291 292 285 296 294 293 296 292 291 286 290 285 287 287 289 289 289 293 289 293 292 289 292 288 287 286 288 288 288 289 289 289 287 284 282 283 281 281 280 281 283 290 288 287 281 275 278 281 282 284 285 287 286 283 283 283 284 283 280 278 279 279 279 278 277 281 276 274 281 282 280 282 284 277 277 277 277 277 276 276 276 277 277 277 276 279 276
292 295 297 297 292 286 288 289 294 292 293 292 288 289 285 286 287 287 289 293 289 293 290 287 290 292 290 290 290 286 288 287 287 284 286 286 285 282 282 281 282 286 286 283 284 285 280 281 285 282 282 285 286 286 287 283 283 284 285 285 281 278 278 277 278 281 282 277 277 282 284 282 283 285 283 280 279 278 278 276 277 278 277 277 276 276 276 275
300 295 296 299 291 292 293 293 295 293 291 291 289 289 287 286 286 289 288 287 291 288 292 286 289 290 291 292 291 288 288 284 282 287 287 288 288 285 280 281 282 280 282 280 282 279 279 281 284 282 282 283 284 284 284 283 283 284 284 284 285 281 278 279 280 282 281 281 282 283 283 283 285 286 288 285 281 280 279 278 277 276 276 276 276 276 276 275
295 295 290 297 294 291 292 293 293 293 289 292 287 288 288 287 286 288 287 290 286 289 293 289 290 291 292 292 291 289 289 290 289 285 288 289 287 286 283 286 279 278 279 280 281 279 284 281 285 280 280 281 283 283 283 282 282 281 283 284 284 284 284 282 281 281 281 280 282 282 281 281 286 288 287 286 282 281 278 276 276 277 276 276 276 275 276 276
304 303 300 293 290 291 290 291 291 291 289 290 288 288 289 288 287 289 289 294 291 289 291 290 292 291 291 292 291 291 293 292 292 292 291 290 287 289 287 284 284 278 278 278 279 277 283 278 278 277 277 280 283 280 280 280 280 281 281 282 282 283 281 283 281 282 281 279 281 280 278 279 284 286 282 283 278 278 277 276 276 276 276 276 276 276 275 275
305 303 303 297 291 293 290 291 291 291 286 291 290 290 289 288 290 291 287 293 294 294 293 294 293 292 289 290 290 292 295 295 295 295 292 293 291 287 292 287 287 283 278 280 281 280 282 279 278 276 277 278 281 277 277 277 277 277 279 281 282 282 284 285 285 285 284 283 280 278 279 284 286 280 278 277 278 277 277 277 277 277 277 277 276 276 275 275
Wind_Speed
17 17 17 17 17 17 17 17 17 15 15 14 14 15 15 13 12 10 12 10 8 7 7 7 7 6 7 6 7 8 7 6 6 5 9 4 4 8 11 12 11 10 10 4 6 9 5 5 6 7 5 2 1 1 2 1 1 2 2 4 3 1 3 2 3 5 2 3 1 1 0 8 8 3 6 7 15 13 9 14 7 11 9 6 5 4 4 2
17 17 17 17 17 17 17 17 17 16 15 14 14 15 16 14 13 12 12 10 8 6 7 6 6 6 5 5 5 6 5 2 4 6 2 2 4 8 11 10 9 6 6 3 6 4 4 7 5 7 4 1 2 0 1 0 2 3 2 3 1 3 0 1 2 3 3 2 2 1 1 2 5 10 3 8 2 10 12 7 5 10 7 6 5 4 4 3
17 17 17 17 17 18 18 17 17 17 16 14 13 15 14 15 15 13 12 10 9 6 5 6 5 5 5 4 3 4 1 2 2 5 3 3 8 10 10 8 7 2 1 1 1 0 1 3 3 3 3 1 4 1 2 1 1 0 2 2 0 4 1 1 2 2 3 6 3 2 1 2 1 4 3 7 9 4 14 10 2 6 8 5 4 4 3 4
18 17 17 17 17 18 18 17 17 17 17 15 14 15 15 15 15 14 13 10 9 7 5 5 5 4 4 3 2 0 3 1 2 3 2 6 8 9 8 8 6 1 2 2 2 1 0 1 1 1 1 4 4 2 2 2 3 1 2 1 1 5 4 1 2 3 1 4 3 3 0 3 3 1 5 13 10 1 4 9 15 14 12 9 6 4 4 6
18 18 18 18 18 18 18 18 17 17 18 17 14 12 15 15 15 14 13 10 8 7 5 4 5 4 4 2 2 1 3 3 1 1 3 8 9 8 9 9 7 1 4 2 2 0 1 3 2 3 3 1 3 2 1 2 1 1 1 1 2 1 3 4 4 4 3 2 6 1 4 1 0 5 10 14 9 8 11 9 5 15 13 11 9 5 5 6
19 20 19 18 19 19 19 19 18 18 17 18 15 12 14 16 15 14 12 10 8 6 5 5 4 4 3 2 0 2 2 1 0 2 4 9 10 10 9 7 8 1 3 2 4 1 9 7 5 3 3 2 2 1 2 0 1 1 2 1 1 1 3 4 3 4 4 1 3 1 1 2 3 2 0 0 4 4 5 9 11 11 10 9 7 6 6 6
18 19 19 18 18 19 20 20 19 18 18 17 16 12 11 10 16 14 13 10 8 5 4 4 3 3 3 2 1 5 2 1 0 5 5 8 10 10 9 5 6 5 5 8 7 4 3 5 6 1 1 2 0 1 1 2 3 3 2 1 1 1 2 6 4 6 4 9 2 1 2 4 6 4 0 3 3 8 9 9 10 9 8 6 8 5 8 7
18 18 17 18 18 19 19 20 20 19 19 17 17 14 12 10 15 14 14 10 7 5 3 2 2 3 1 1 1 2 1 1 3 3 5 7 8 10 7 2 9 3 10 4 2 3 2 5 3 0 3 1 1 0 1 1 2 1 1 0 3 0 1 2 4 4 5 2 1 6 4 4 5 6 4 4 7 9 9 9 9 9 7 6 7 7 6 6
18 17 18 18 18 17 18 19 19 20 19 19 17 17 15 12 15 13 14 11 6 4 2 2 1 1 2 2 2 2 1 1 4 2 2 6 7 8 7 1 7 5 3 2 3 2 3 1 0 0 1 1 0 1 1 1 3 3 1 0 1 1 3 0 3 1 4 1 2 6 4 1 6 9 4 6 7 7 9 9 8 8 8 7 8 7 6 6
18 19 19 18 18 18 19 19 19 20 21 20 18 17 14 15 14 13 13 11 6 2 3 2 0 1 3 2 2 1 1 2 2 1 2 4 6 7 8 2 3 2 2 3 3 5 3 1 1 1 2 0 0 1 1 2 2 2 1 0 0 3 2 1 3 2 2 1 2 4 4 4 5 6 2 4 6 8 9 9 6 8 9 7 7 6 5 6
18 18 20 19 18 18 19 19 19 20 20 20 21 18 15 15 16 14 12 11 6 3 3 3 2 2 1 2 4 2 1 4 1 0 2 3 6 6 2 6 1 2 6 3 4 1 3 4 2 1 1 1 0 3 1 1 1 1 0 3 4 6 3 1 1 3 1 1 4 8 6 7 6 0 8 14 10 9 11 8 7 6 7 7 7 6 4 5
17 18 19 21 19 17 19 19 19 19 18 20 20 19 15 17 17 16 13 10 4 3 3 3 3 2 2 4 4 1 3 4 1 0 1 2 1 2 4 1 1 2 1 1 0 1 3 4 4 1 1 0 2 0 0 1 0 1 1 2 4 5 2 1 4 2 2 1 5 3 5 3 3 7 5 15 12 9 9 9 7 7 6 6 6 5 4 5
18 18 19 20 21 18 19 19 20 20 19 18 18 17 18 20 15 15 14 8 2 3 3 4 3 1 2 0 2 4 1 1 1 4 3 2 0 1 0 0 1 0 1 2 3 2 3 4 3 2 1 1 1 1 1 1 1 2 2 2 2 4 5 4 0 1 3 2 2 3 7 6 13 5 11 14 15 10 9 9 8 6 6 5 5 5 4 4
16 18 19 21 22 19 17 19 19 20 20 19 19 20 18 20 14 14 11 6 4 3 4 5 2 1 1 1 2 3 1 1 2 3 2 2 2 1 2 3 1 1 1 3 1 3 3 1 4 2 1 1 1 1 1 3 2 1 1 3 0 0 3 2 1 1 3 1 2 2 7 8 6 2 11 14 14 16 13 10 9 7 6 5 4 5 5 4
15 17 19 20 22 19 18 18 20 21 21 21 21 18 21 19 16 13 9 4 3 4 6 5 1 2 2 0 2 4 3 1 1 2 1 2 0 0 1 3 1 2 1 3 1 0 3 4 3 2 0 1 1 2 3 2 3 1 2 2 2 2 5 8 1 4 6 1 2 4 5 10 8 5 10 12 11 11 13 10 9 8 7 6 5 5 5 5
15 17 19 20 21 22 18 18 18 21 22 22 20 24 23 16 14 10 6 3 3 4 4 1 0 3 4 0 1 2 2 1 2 2 1 1 1 0 0 0 0 3 1 2 1 1 3 2 5 1 1 1 5 3 4 4 1 4 1 3 2 1 5 7 1 2 6 1 1 7 8 2 3 5 8 7 11 9 11 9 9 9 8 7 5 5 5 4
13 16 18 18 21 21 18 19 19 19 19 21 24 24 21 14 10 7 2 6 2 1 1 1 1 0 1 0 1 1 2 3 1 0 2 0 1 0 1 2 1 1 4 1 2 1 3 2 1 1 4 4 1 3 3 4 4 3 2 2 3 3 2 3 6 2 1 2 4 1 5 7 1 8 10 8 10 9 11 11 10 9 7 7 6 6 6 5
15 17 17 18 21 20 17 18 18 19 20 23 23 19 18 17 10 0 2 4 1 3 2 1 2 1 2 1 1 3 0 1 1 2 1 1 2 1 1 1 0 3 1 1 2 2 2 0 3 2 2 4 3 2 2 5 2 4 5 5 7 2 4 7 2 2 1 0 5 2 5 11 4 7 11 12 10 10 11 12 11 9 8 8 7 6 6 6
15 15 17 19 19 18 17 18 19 20 18 24 21 15 7 1 2 4 5 4 0 2 1 1 1 1 3 2 3 3 1 2 1 1 1 1 1 2 2 2 3 1 1 2 1 1 2 1 3 3 1 1 1 2 3 5 2 6 5 6 3 5 7 5 5 3 4 5 7 7 10 11 5 8 9 7 10 11 8 6 6 7 7 8 8 7 6 5
13 16 18 20 17 19 19 18 20 20 18 15 10 9 6 8 8 0 7 5 0 2 2 3 1 2 1 2 1 1 0 2 1 2 1 1 0 0 1 1 2 4 2 0 4 0 1 1 1 4 7 7 4 4 4 4 5 3 1 2 8 6 10 4 3 5 2 1 9 10 9 8 7 9 13 13 8 6 8 10 9 8 8 8 8 8 8 6
12 14 17 17 17 18 18 20 19 19 16 5 4 4 2 2 1 2 4 11 6 2 2 3 4 3 3 1 1 1 1 1 0 1 1 1 1 2 1 0 3 1 0 0 2 2 3 2 6 7 7 8 6 4 1 1 1 3 3 3 8 4 10 7 2 1 0 3 4 2 5 10 11 7 9 7 9 12 13 13 12 11 9 9 10 9 8 8
10 12 14 16 17 18 19 19 20 18 12 1 5 4 1 2 0 0 1 5 4 0 2 3 0 1 2 2 1 3 3 0 2 3 2 1 0 3 2 2 2 3 1 1 2 3 1 5 9 6 4 3 0 0 0 3 4 1 3 2 4 9 5 11 5 1 1 1 9 6 7 8 10 8 6 10 15 14 15 17 17 16 12 10 9 9 9 5
10 12 13 15 16 17 18 20 16 14 4 5 3 3 1 1 2 1 1 0 6 3 1 0 1 3 2 2 1 2 1 4 3 1 1 2 1 1 2 2 2 1 0 1 3 0 6 4 8 2 5 3 0 0 1 1 1 3 1 1 9 3 4 8 2 3 1 1 4 4 10 7 9 8 11 11 14 7 8 7 8 11 14 13 12 11 9 7
11 11 12 14 16 17 18 18 15 4 3 3 4 2 0 0 0 1 1 2 5 5 2 1 1 1 3 1 1 3 3 2 1 2 2 1 3 2 3 3 3 1 5 3 5 6 8 5 1 5 3 4 3 0 3 1 7 3 4 5 7 6 6 7 5 4 4 5 2 7 12 8 10 15 13 2 2 4 6 5 6 7 7 9 8 7 7 10
12 11 11 13 13 16 18 17 4 1 1 2 1 1 0 0 1 0 0 4 2 4 2 2 3 2 2 1 1 1 1 0 2 0 2 2 4 2 1 1 3 3 4 3 3 1 9 5 3 4 1 1 2 3 4 5 4 4 6 10 10 7 7 6 3 5 5 5 4 3 10 2 4 8 12 1 2 6 5 11 12 12 9 9 9 9 7 6
10 9 10 10 13 16 17 3 1 1 1 0 0 1 1 1 1 2 2 3 3 3 1 3 1 1 2 1 1 2 2 2 0 1 1 1 1 1 1 0 1 3 3 1 3 3 4 1 1 4 4 2 2 4 3 6 6 1 7 3 7 6 3 2 4 4 5 2 2 2 4 12 2 3 8 6 7 11 4 11 12 11 11 10 9 9 9 8
11 10 7 10 11 14 4 2 0 1 0 1 1 1 1 0 0 1 1 3 2 4 4 0 1 1 2 1 1 1 0 2 1 1 1 2 0 1 2 4 1 1 2 1 4 5 2 0 4 2 3 4 3 5 4 8 4 5 2 3 4 2 2 2 0 3 6 0 6 2 4 10 13 9 9 10 12 11 9 11 12 13 12 11 9 9 9 8
10 8 6 8 10 6 2 2 3 1 1 0 1 1 1 0 1 1 3 2 2 1 1 2 1 1 0 0 3 2 1 0 1 1 0 1 0 1 1 4 7 6 3 3 6 4 4 3 3 2 1 3 7 6 3 7 6 4 1 2 0 1 3 1 2 5 1 3 11 3 4 4 8 6 2 7 7 9 15 15 16 16 14 11 11 11 10 9
9 5 5 6 10 4 1 0 0 1 1 1 0 1 1 1 1 3 2 1 2 1 2 2 1 1 1 1 0 0 0 0 1 0 2 0 2 1 1 4 3 3 1 6 9 2 2 2 7 7 6 7 5 3 6 10 4 2 3 1 1 0 0 2 3 1 2 2 12 8 8 5 15 6 2 0 6 13 16 19 19 18 15 12 12 10 9 7
7 4 2 5 6 2 3 1 1 2 1 0 1 1 2 0 2 2 1 5 1 1 1 1 2 2 2 3 2 1 3 1 2 1 2 2 2 2 1 1 3 1 4 2 2 6 2 3 5 4 6 4 4 1 2 1 2 3 4 1 3 3 2 2 3 2 3 4 15 8 12 10 10 5 10 10 12 16 14 8 10 9 8 11 12 12 9 8
4 4 1 4 2 1 1 3 3 3 1 1 2 2 1 4 3 4 4 6 1 2 2 0 3 3 4 4 3 0 0 1 1 1 0 1 1 3 0 1 5 3 2 2 3 5 2 1 1 2 3 3 4 3 3 1 0 2 1 1 5 4 5 2 3 3 1 9 7 4 11 9 8 7 8 12 3 5 13 17 20 19 18 16 13 10 9 8
8 5 3 1 1 1 1 1 1 1 1 2 2 3 3 4 3 6 6 3 1 2 4 2 0 2 4 1 2 3 4 0 1 3 6 3 3 3 4 6 2 3 6 1 4 3 2 6 2 3 3 9 3 3 1 5 3 3 2 3 2 6 6 4 2 3 6 8 1 1 5 4 14 19 4 11 15 7 9 14 19 21 18 15 12 11 9 8
6 5 3 2 2 0 2 1 2 2 2 1 1 2 2 3 6 3 3 0 3 3 3 4 3 3 3 2 3 2 1 3 1 1 4 0 1 4 4 3 5 5 7 1 2 3 8 1 1 3 2 4 7 6 2 1 1 5 3 3 2 3 1 5 5 3 5 5 3 3 2 9 10 11 13 21 16 11 10 13 11 16 19 18 15 10 9 8
8 8 3 2 4 4 1 2 2 3 1 1 2 3 4 3 6 6 6 5 3 2 2 1 1 3 3 7 3 5 1 3 4 3 2 1 1 2 3 2 4 2 1 1 3 4 2 5 6 7 4 3 8 7 9 4 8 8 2 7 7 6 2 7 2 7 11 9 2 4 2 8 1 6 1 7 8 6 11 7 6 10 13 12 9 8 9 8
7 5 2 1 1 4 5 3 3 3 2 1 2 5 8 10 1 6 5 4 2 1 1 1 3 3 4 1 2 2 4 1 1 2 1 4 5 4 5 4 4 5 2 1 4 2 8 7 4 1 1 3 8 1 5 6 3 2 2 4 4 8 5 8 5 3 5 8 7 3 8 5 8 1 2 1 1 1 3 5 9 10 10 10 10 10 10 8
6 2 3 3 2 2 6 5 4 3 3 3 5 7 14 9 6 3 4 5 2 3 2 3 3 3 4 2 3 2 3 3 1 2 2 4 2 3 3 4 8 13 9 8 4 3 1 5 1 2 3 1 2 1 2 3 4 3 5 6 7 1 5 4 2 1 0 2 14 4 9 8 6 5 2 1 3 1 3 6 10 12 12 10 10 9 9 9
2 3 3 3 2 3 6 6 5 4 2 4 5 13 8 4 6 5 3 5 4 9 4 6 4 8 4 6 5 3 4 2 3 3 5 1 5 8 3 6 5 7 12 9 4 5 3 7 1 4 4 0 1 0 1 3 3 7 3 8 1 2 2 3 5 2 1 5 10 4 11 16 6 14 3 1 5 6 6 8 9 10 9 11 10 10 10 9
4 3 4 5 5 7 7 8 7 2 2 5 14 9 2 8 3 6 1 3 2 1 4 6 5 9 5 5 3 5 2 6 3 4 4 5 4 4 5 2 6 11 11 0 5 3 5 8 3 2 1 2 1 0 2 0 1 3 3 2 3 4 2 0 3 5 1 7 8 6 3 19 11 13 3 8 10 12 10 7 8 11 11 12 9 10 9 8
4 2 4 9 9 11 8 8 5 6 3 6 11 7 4 5 1 6 7 5 1 4 5 6 6 4 7 5 3 0 7 7 4 7 2 3 3 5 7 6 3 1 1 8 2 1 1 4 4 1 1 1 1 4 7 4 1 1 0 1 0 1 5 4 6 3 3 9 5 11 3 20 5 7 12 13 17 16 12 10 13 17 16 12 10 11 10 9
5 2 7 1 5 11 12 9 5 3 4 15 11 10 2 5 7 6 4 7 5 4 5 3 5 4 4 7 7 7 6 5 7 6 4 3 7 2 5 3 5 2 3 1 3 1 3 3 8 0 4 1 3 5 10 11 8 3 1 3 1 2 2 1 2 5 5 4 6 10 10 18 6 7 11 13 17 17 18 18 16 15 13 11 11 11 10 9
2 3 2 1 7 9 11 6 5 10 10 5 2 3 3 4 1 5 8 8 5 3 5 4 5 8 5 2 8 3 3 6 5 6 6 4 8 4 7 8 6 5 2 3 1 2 2 2 9 3 1 7 8 3 7 11 13 11 12 12 14 7 4 3 12 4 5 5 8 7 13 23 3 0 8 10 13 15 15 18 18 13 12 13 12 11 10 9
6 7 2 7 8 12 12 9 7 3 3 10 11 6 4 4 3 3 3 7 8 5 1 3 4 6 5 8 5 6 5 4 7 5 6 11 6 9 3 10 9 13 11 8 9 5 5 3 1 7 10 11 5 1 1 1 1 3 8 9 11 9 4 6 12 7 1 11 2 4 7 28 4 4 3 6 9 12 14 16 15 11 13 13 11 10 9 9
9 6 4 7 10 12 9 7 3 6 9 6 1 7 2 3 4 4 6 2 5 6 3 5 8 6 5 5 6 4 7 6 9 9 5 7 7 12 5 13 10 8 6 1 3 1 4 2 1 10 4 2 3 2 3 3 0 2 6 2 6 13 17 16 12 1 5 1 5 7 12 19 1 1 3 4 5 9 13 16 16 11 10 11 11 9 10 6
3 3 1 2 8 6 9 12 11 13 11 2 6 9 5 5 4 3 7 8 8 4 9 6 2 11 8 5 3 6 7 5 8 10 8 4 4 2 3 10 14 8 10 9 9 6 3 5 6 5 6 6 1 4 2 1 2 5 5 9 14 10 8 3 4 2 2 15 8 6 19 19 1 2 2 3 2 8 9 8 10 12 10 10 10 9 8 7
2 1 4 6 7 8 14 7 5 7 12 12 8 11 7 5 11 17 9 8 7 4 2 5 11 4 6 3 6 5 6 17 6 8 9 5 6 1 5 9 12 9 4 1 2 8 5 5 8 5 9 10 13 5 5 7 12 5 3 4 9 15 15 3 7 8 14 5 10 12 17 21 2 3 1 2 4 6 6 8 6 10 12 11 10 9 9 7
9 7 5 6 9 9 9 1 0 4 6 7 7 12 12 15 5 7 14 11 8 3 7 2 0 5 6 4 5 8 10 9 14 2 4 3 3 1 2 3 7 5 2 3 4 9 3 2 8 12 11 16 17 12 1 6 5 6 7 12 14 14 15 12 8 10 17 10 12 23 23 25 22 7 4 6 7 11 10 9 10 10 10 11 10 9 9 8
4 9 8 7 4 11 13 11 6 4 6 9 7 5 19 21 11 3 13 6 11 11 5 8 3 5 6 8 11 11 13 14 10 8 6 3 3 2 3 3 1 2 3 2 4 4 2 3 12 13 17 21 20 18 5 5 12 13 11 14 13 14 14 17 18 22 8 2 19 25 22 20 29 18 10 11 10 10 10 12 12 8 11 13 11 9 8 7
9 8 10 13 12 12 14 13 18 16 14 13 13 4 4 10 13 13 3 9 4 12 10 2 10 18 13 16 11 9 13 15 10 9 5 5 2 2 0 1 4 2 4 1 1 5 6 11 13 7 17 20 21 18 9 6 7 12 17 20 11 13 15 22 25 24 14 13 24 29 23 21 26 20 12 17 14 16 16 16 17 16 12 8 8 10 10 9
9 3 5 10 12 7 22 21 23 23 25 18 9 14 19 16 15 14 6 5 7 7 19 13 18 23 18 14 13 15 17 9 8 11 9 12 16 8 3 1 4 2 4 2 3 2 2 9 10 8 15 16 18 15 9 14 14 15 23 28 17 13 22 24 24 23 22 24 28 28 29 32 29 22 15 11 13 14 13 10 6 8 12 13 12 11 11 9
13 12 4 9 10 5 5 5 12 17 20 22 15 21 22 19 19 10 5 11 8 15 14 21 21 16 18 18 19 19 23 22 17 14 13 15 8 7 7 9 3 1 2 6 4 3 7 9 5 4 9 15 19 9 7 11 11 18 28 31 16 17 19 21 21 24 22 22 29 31 30 30 28 24 13 8 9 9 6 11 15 14 13 14 14 12 11 10
8 8 6 6 10 12 4 8 11 17 18 15 18 26 11 12 22 18 14 12 22 14 15 28 28 15 13 20 23 29 28 18 15 21 18 17 17 13 11 6 13 7 6 4 2 2 6 6 4 2 5 13 11 2 3 2 5 17 29 32 16 17 20 21 19 24 18 26 28 23 18 24 28 19 3 8 7 11 14 14 12 12 14 14 14 13 11 10
7 1 8 7 12 12 15 9 12 9 19 22 21 22 15 22 23 10 11 15 20 15 10 20 19 14 13 22 29 30 26 21 21 17 6 11 7 1 11 3 15 14 10 12 4 7 9 5 5 4 7 15 5 7 4 3 4 14 31 25 23 24 25 21 19 21 25 25 15 17 23 26 21 1 4 4 11 12 12 14 14 13 14 15 15 13 11 10
Wind_Direction
355 354 353 349 347 346 344 344 340 342 344 346 346 346 348 352 353 352 1 2 359 354 355 356 3 2 12 14 0 1 6 81 28 24 53 226 227 265 295 299 301 308 324 342 359 32 346 352 6 341 19 41 277 48 286 38 57 61 64 115 43 185 81 198 162 190 185 121 257 316 115 119 123 119 156 69 45 87 69 74 70 63 70 95 111 128 150 156
355 354 352 348 347 346 344 342 340 341 342 341 345 349 348 350 354 358 1 1 0 360 353 356 354 4 11 7 11 21 60 64 71 61 88 267 252 281 291 290 293 316 338 31 26 34 20 336 342 5 28 33 306 160 28 313 74 86 116 75 166 206 301 153 175 175 107 189 200 271 256 120 145 142 179 87 104 101 78 68 81 91 79 76 85 106 108 125
354 354 350 348 347 345 343 342 339 338 340 339 339 346 349 349 351 357 360 0 357 360 352 349 353 354 2 5 12 46 50 9 36 11 299 274 277 292 288 280 289 286 80 308 263 161 215 270 303 8 357 28 0 275 37 284 62 291 101 32 249 216 119 280 185 163 198 153 157 148 170 95 216 131 133 124 152 128 128 138 85 120 135 131 123 99 102 82
355 353 350 348 347 345 342 342 339 338 338 337 339 343 346 349 348 353 358 359 354 355 353 345 346 352 355 349 73 142 69 59 45 267 274 293 295 299 295 298 296 213 118 186 187 226 261 293 37 109 356 57 312 35 32 315 61 282 64 160 206 204 110 257 186 173 164 143 157 150 29 57 13 125 121 143 105 195 187 179 157 166 153 148 150 141 119 85
354 353 351 349 347 345 342 340 338 339 336 336 336 336 344 347 346 346 354 355 355 347 351 339 350 357 355 24 152 114 60 57 256 252 264 321 319 309 313 313 315 192 191 206 115 356 143 60 89 39 73 318 352 5 359 340 115 92 233 203 182 166 84 222 221 195 135 118 106 104 89 142 263 39 131 155 147 193 188 185 164 143 148 147 149 150 113 96
353 353 351 349 346 345 342 340 340 338 336 335 334 329 336 344 343 340 348 354 350 345 339 346 356 348 9 40 69 75 79 138 256 294 310 322 330 318 320 327 338 103 132 61 59 336 42 354 54 26 4 66 344 94 298 228 16 334 314 306 201 218 131 211 210 243 171 116 95 111 158 59 79 127 347 105 168 176 131 132 141 137 142 144 131 130 115 111
352 351 349 347 345 344 342 341 338 335 337 332 331 325 326 327 341 340 338 352 347 331 340 334 340 352 19 41 56 86 117 255 2 260 341 328 329 325 322 346 28 50 71 42 14 47 13 36 68 351 76 60 325 116 304 317 23 124 230 337 328 168 125 183 189 188 170 110 136 164 95 122 147 119 30 84 58 111 115 125 129 131 128 128 126 141 137 139
351 349 348 346 343 341 339 338 337 334 331 331 328 323 327 329 338 335 331 343 345 322 322 322 339 360 134 62 80 12 47 255 251 283 292 340 341 325 312 354 31 40 56 80 24 38 70 35 36 75 62 142 202 105 297 344 14 136 293 270 279 343 150 199 156 122 96 82 79 59 82 203 187 153 99 115 125 121 122 122 121 125 125 128 126 134 138 133
350 348 348 345 343 338 336 335 333 332 330 329 324 321 324 333 334 332 323 331 348 308 286 263 311 35 162 88 109 82 285 239 211 257 306 356 324 339 14 358 12 71 125 51 43 127 108 292 20 173 251 156 194 20 330 70 324 174 202 183 333 301 312 183 55 102 121 113 69 60 37 26 127 106 51 149 139 134 127 123 132 133 133 134 130 133 130 125
349 347 347 345 343 337 337 334 332 331 330 326 322 322 317 325 332 328 319 323 336 288 256 233 9 213 101 86 49 77 260 173 287 241 25 20 355 1 26 37 31 57 59 340 33 53 77 198 143 236 142 352 8 253 169 104 229 152 201 177 239 277 320 291 183 207 175 131 126 110 126 142 203 77 206 194 163 142 132 138 151 144 139 141 133 131 126 114
347 345 344 345 340 336 337 334 330 329 327 324 322 318 313 325 330 326 314 320 328 265 205 205 185 146 86 89 105 199 198 104 227 119 66 37 3 36 5 337 54 63 100 37 86 138 140 139 177 147 46 219 63 297 135 235 125 79 146 339 328 330 230 242 96 191 162 251 153 120 166 170 204 2 203 170 167 157 146 152 156 152 147 147 147 134 136 117
345 343 342 342 340 334 334 333 330 326 324 321 319 313 310 325 328 321 316 322 307 218 173 187 187 140 78 72 128 206 175 223 127 102 57 38 321 193 226 267 52 157 133 131 277 261 160 155 123 64 248 35 293 357 47 212 90 222 68 306 301 350 8 242 183 212 157 273 154 143 97 177 236 225 167 157 152 159 151 152 159 159 156 154 147 138 129 129
343 341 339 339 339 334 333 332 330 325 323 317 311 310 310 321 321 316 315 330 129 162 187 164 101 106 111 79 243 252 255 298 98 41 2 52 91 7 85 77 49 151 141 130 195 213 178 135 110 71 240 90 192 34 179 83 285 82 51 152 2 357 333 279 140 11 149 248 120 147 290 245 221 242 148 151 155 150 148 158 165 162 158 153 148 146 141 126
342 339 337 337 337 333 330 331 329 326 322 317 312 309 306 318 318 309 307 292 252 228 171 171 118 81 97 231 265 263 278 158 60 16 320 356 130 300 4 4 30 41 68 89 132 154 113 80 106 126 106 132 307 305 37 338 23 164 254 70 126 38 271 302 152 202 185 218 97 86 243 272 278 254 165 157 158 159 160 165 169 164 160 154 154 148 148 175
340 337 336 335 335 332 331 329 328 327 323 319 315 307 308 317 315 304 299 308 147 163 131 92 30 87 55 280 289 283 240 110 16 250 250 42 76 336 291 354 12 360 22 120 155 178 123 87 77 41 310 300 344 9 332 23 357 33 53 305 326 156 280 298 222 155 186 310 103 94 262 252 258 194 177 162 161 162 159 170 170 169 163 164 155 152 159 186
334 335 335 332 334 335 328 328 327 325 323 319 318 313 307 314 310 301 291 230 194 159 135 116 13 118 97 7 213 55 64 141 242 237 262 100 116 287 197 305 335 27 19 350 56 73 37 87 72 178 302 7 47 84 17 24 337 355 67 251 264 182 262 342 292 204 215 196 305 163 237 298 276 172 174 175 164 173 159 173 175 174 172 164 166 170 182 175
329 335 333 330 335 334 328 326 326 321 317 318 320 309 310 310 309 318 68 105 64 137 131 212 160 106 228 238 338 127 232 234 279 3 334 183 146 187 47 58 34 41 42 18 6 39 345 66 303 21 35 99 120 91 6 19 325 313 24 259 205 211 250 255 302 310 202 170 253 249 229 239 232 175 178 179 177 172 172 176 178 177 173 174 175 182 182 172
332 331 330 329 332 331 325 326 323 322 319 319 315 301 299 305 318 149 49 32 45 97 121 106 111 70 305 4 158 239 170 163 334 234 257 279 113 67 91 58 282 98 75 7 354 64 329 356 32 185 9 1 34 37 86 263 250 275 308 314 305 298 211 243 295 272 130 275 221 260 243 264 259 186 188 187 176 181 183 176 174 172 172 179 179 185 188 180
328 324 328 330 327 328 327 324 325 322 321 317 307 299 278 317 339 81 59 355 51 338 37 241 230 148 237 245 262 353 212 204 90 82 222 116 15 102 81 90 67 157 295 60 258 49 349 68 26 40 318 291 245 141 168 227 186 244 232 235 223 281 272 208 237 273 173 239 242 226 237 250 244 186 196 188 185 187 182 166 173 178 181 178 183 188 186 189
320 323 327 326 324 327 328 324 325 322 328 334 350 352 13 12 1 316 341 26 112 184 235 238 280 301 348 40 108 257 340 33 143 261 339 288 105 71 40 77 3 53 87 235 299 25 107 83 267 254 249 219 222 181 187 212 191 230 156 205 252 241 279 271 245 255 157 251 242 237 242 252 251 202 198 195 170 175 172 181 186 189 183 187 190 190 193 190
318 321 325 324 322 326 326 324 324 320 325 314 319 49 66 191 44 307 310 270 257 265 225 260 196 196 246 140 276 19 136 318 110 252 202 115 113 110 239 60 17 53 337 308 196 307 67 27 272 232 232 196 202 201 215 358 151 207 244 258 278 226 261 270 274 333 298 176 288 270 247 253 253 234 212 186 168 194 186 188 190 188 192 190 188 193 195 203
314 318 322 319 321 324 324 323 323 320 322 29 54 91 135 152 149 223 109 319 322 284 234 244 212 273 334 199 257 149 99 44 293 256 283 150 277 145 294 111 135 182 320 33 17 18 13 251 261 253 218 145 75 125 182 209 246 235 210 262 318 271 250 282 293 283 249 139 265 284 258 252 258 247 219 190 198 202 197 190 188 177 184 189 192 192 198 195
321 316 313 316 319 321 323 318 322 323 3 31 55 72 141 252 322 287 90 170 273 273 203 296 230 282 296 298 259 124 141 191 210 276 253 38 108 235 151 97 146 150 3 77 189 269 330 288 247 229 132 140 340 78 158 279 2 224 232 285 251 236 10 306 300 9 335 192 281 291 274 263 264 257 238 210 203 207 194 193 187 187 181 186 191 188 185 189
314 306 308 315 319 321 318 320 318 10 22 117 89 135 238 71 69 83 77 224 287 310 222 237 167 184 214 167 224 123 157 247 124 229 339 87 142 197 91 145 111 98 208 165 150 174 226 233 145 109 119 149 209 90 140 154 268 272 196 225 261 276 240 206 275 320 286 296 218 276 274 258 226 246 250 221 184 136 177 160 188 218 206 191 195 194 186 183
298 302 307 310 320 319 316 318 23 345 173 43 64 254 262 176 94 126 40 326 1 290 222 321 135 242 202 71 11 162 235 17 225 235 271 111 151 78 207 176 108 226 190 188 101 292 280 273 131 106 104 116 157 261 217 154 254 311 234 205 231 241 265 275 336 12 6 320 317 53 318 272 281 228 254 196 138 201 194 180 196 198 204 202 195 193 205 200
287 297 299 313 322 324 308 334 340 329 69 103 222 263 290 128 80 79 92 77 299 264 11 226 150 267 104 222 44 222 100 263 211 230 85 249 164 141 93 62 134 213 201 161 219 208 225 359 110 172 154 163 181 214 242 152 207 22 270 199 227 232 227 287 329 27 292 247 303 45 235 286 111 231 227 198 197 209 185 201 199 199 203 202 193 192 194 195
290 286 304 319 324 337 3 193 304 348 283 292 282 281 301 55 220 87 15 348 318 225 159 266 65 241 80 264 144 118 102 269 339 12 46 306 142 291 141 238 27 1 164 153 33 288 113 3 57 65 130 161 208 271 245 162 140 236 249 113 107 127 232 246 103 195 248 321 278 223 163 266 286 250 234 194 196 205 202 213 207 205 203 199 193 193 197 196
276 277 299 315 320 340 204 323 355 127 195 257 266 314 41 74 76 80 79 352 260 299 128 227 213 344 90 306 55 162 204 154 83 241 166 296 83 8 101 204 170 189 186 90 249 255 149 189 176 150 139 170 217 209 194 158 157 219 217 128 189 200 230 191 244 259 253 28 288 223 151 271 246 273 332 144 199 226 222 210 210 210 206 195 197 199 200 192
262 268 292 323 324 13 110 149 121 228 215 249 182 74 41 64 101 102 131 227 249 81 280 73 280 61 359 11 55 41 309 303 168 256 319 347 40 157 176 236 166 171 249 165 220 264 275 183 206 167 148 226 222 238 173 156 216 280 158 122 70 83 137 194 237 259 332 71 274 247 171 209 270 201 117 300 235 232 224 213 211 209 199 194 196 202 199 191
264 258 301 343 347 49 340 23 197 238 273 176 65 93 52 43 45 45 8 234 358 237 147 185 149 219 92 144 285 25 190 293 118 2 18 151 327 33 31 102 124 117 221 1 257 225 241 334 155 134 199 210 150 86 150 219 130 124 67 13 349 20 25 46 66 104 54 235 245 229 187 182 286 200 187 160 213 209 216 214 219 214 207 204 200 194 191 180
209 224 194 28 332 264 4 335 269 257 228 84 83 62 98 37 128 115 216 223 6 232 35 142 203 61 127 158 226 300 163 209 252 122 174 8 316 36 108 324 40 53 31 357 290 321 348 354 159 265 72 100 108 93 10 81 84 118 45 65 346 321 9 35 343 45 149 263 256 232 193 189 202 277 218 223 278 218 189 195 201 202 200 197 196 194 186 178
192 187 166 131 215 95 186 257 257 149 109 111 89 72 90 225 6 186 211 312 272 245 159 232 310 145 176 342 123 181 178 304 205 165 182 185 164 152 193 196 148 322 333 289 265 5 269 217 240 333 209 130 111 86 326 16 5 73 69 32 28 283 8 314 42 283 192 228 233 75 128 315 235 244 226 243 240 238 206 202 199 197 192 191 192 187 186 174
171 166 171 207 95 248 238 218 130 113 86 54 77 62 105 126 230 207 271 220 250 144 256 104 190 160 166 105 258 231 246 179 247 201 128 215 164 266 260 205 193 168 247 263 300 7 278 285 278 235 23 218 134 140 226 355 228 115 157 163 84 323 22 259 257 245 299 277 257 102 94 246 265 279 229 239 238 213 214 217 205 187 181 185 184 181 175 177
170 141 180 185 192 205 219 147 150 121 86 57 94 65 52 158 241 236 212 216 204 355 68 132 71 59 132 178 238 161 206 253 150 211 167 222 96 243 286 251 159 106 144 171 203 204 310 335 263 155 229 167 178 183 180 166 158 200 133 146 186 147 196 283 211 266 278 269 276 265 54 232 148 232 296 263 282 234 207 210 180 174 175 170 167 166 173 178
161 145 165 310 272 241 198 187 134 133 107 98 92 146 184 221 214 179 227 254 261 304 123 321 128 102 261 325 291 263 191 306 141 117 200 139 241 170 193 215 241 117 140 94 256 81 212 227 259 318 255 152 175 217 124 101 66 171 164 79 90 227 126 222 204 226 310 332 308 178 213 202 214 205 288 352 13 112 153 136 143 151 156 160 170 177 181 185
110 192 139 235 197 252 166 164 141 112 143 115 158 210 216 178 207 167 238 170 152 168 176 45 87 152 240 304 312 196 328 177 287 118 293 191 217 196 215 208 177 186 153 183 190 215 74 268 278 319 53 149 195 144 204 133 214 212 106 205 209 140 148 280 356 100 43 96 260 157 284 261 312 260 181 105 127 182 137 157 156 163 167 167 178 181 183 187
178 118 217 184 230 187 153 145 135 107 94 152 175 232 203 249 185 179 234 168 205 134 114 164 244 165 213 224 208 191 236 74 254 135 255 166 299 197 223 254 179 185 200 153 269 185 217 261 219 120 219 292 216 130 72 27 145 105 202 238 156 160 107 130 239 312 144 233 274 134 259 277 89 286 71 128 177 197 196 177 174 166 168 180 186 182 184 190
161 208 243 201 206 153 145 140 121 110 108 153 222 232 170 212 229 191 182 113 51 53 128 177 273 159 239 171 237 192 251 165 241 126 239 188 249 169 137 193 208 188 205 357 167 279 109 296 225 304 57 322 351 147 349 323 28 146 187 252 128 236 257 27 85 273 283 253 273 255 240 266 217 250 141 218 196 205 203 188 173 186 192 192 184 188 191 192
192 193 250 206 158 146 144 136 123 131 150 205 228 239 230 230 216 213 195 141 122 131 191 231 198 220 159 186 204 166 156 188 185 191 136 240 191 209 186 169 209 222 183 135 181 164 53 227 305 333 118 319 10 107 208 204 327 58 3 324 149 114 232 146 198 211 128 274 291 281 40 280 129 214 199 202 200 200 185 183 198 199 195 185 184 186 188 191
177 211 232 24 145 139 138 133 124 155 179 218 208 219 155 212 229 243 240 196 242 160 240 186 230 243 180 214 158 170 240 191 155 224 173 237 195 248 198 235 167 145 53 221 149 141 202 113 261 90 306 102 188 187 213 163 182 185 136 257 321 205 237 67 295 170 198 231 245 281 298 271 149 201 181 197 197 199 180 190 200 203 194 189 184 183 188 187
216 253 267 137 142 141 127 125 164 197 209 254 244 225 251 235 235 236 230 217 233 237 193 188 172 206 180 171 260 179 203 176 177 188 195 270 191 251 211 188 153 144 135 51 102 206 135 164 224 104 285 213 236 217 196 177 184 180 175 206 196 166 234 230 259 96 222 202 242 238 256 268 192 267 195 181 201 197 184 189 200 194 187 188 186 187 182 185
177 222 195 156 165 152 143 166 221 175 206 213 211 180 227 214 251 240 232 227 209 240 72 209 221 207 205 220 191 187 164 183 210 197 232 216 219 203 257 164 169 152 142 185 189 222 162 144 142 226 206 226 213 234 349 231 292 205 175 222 173 203 153 195 262 232 83 235 235 263 293 268 145 185 186 188 193 191 181 195 202 185 187 189 184 184 188 182
205 219 14 165 184 170 157 226 194 199 224 235 273 294 264 296 218 212 201 194 215 208 237 232 206 199 243 203 209 202 173 230 171 206 215 225 234 200 211 174 138 159 104 5 50 241 113 174 206 267 303 359 45 341 17 31 75 315 254 183 153 205 199 208 230 133 191 173 166 232 239 266 86 222 184 198 212 183 183 194 191 182 185 183 178 183 185 187
196 173 128 223 211 217 175 204 203 206 224 263 219 241 214 242 214 234 207 197 192 177 205 211 27 204 234 184 157 216 173 248 220 190 248 189 250 199 152 170 161 174 160 215 159 206 123 246 155 286 338 307 316 358 339 357 54 224 211 204 212 225 231 250 78 124 276 228 172 208 254 269 100 329 14 97 128 169 191 205 176 175 185 178 179 182 181 179
96 117 161 185 204 213 206 206 195 187 214 216 212 236 232 248 225 220 198 215 212 196 141 231 214 155 218 139 199 209 197 205 263 222 218 187 221 63 312 173 205 187 201 292 215 160 182 183 143 190 229 271 275 239 234 235 216 212 227 223 216 210 214 128 247 223 235 225 173 234 253 257 276 322 171 221 188 187 198 182 186 181 175 174 179 183 177 171
181 215 161 185 191 215 261 303 70 198 190 196 230 240 227 235 250 208 199 231 190 223 223 213 353 178 202 149 208 215 230 232 212 235 170 222 232 293 232 272 213 216 223 140 159 147 187 199 196 208 205 234 244 261 119 115 88 196 228 207 213 211 212 211 231 238 231 239 235 241 240 266 259 228 250 214 207 188 179 192 184 188 187 180 178 177 174 177
149 217 163 181 133 226 225 207 205 174 208 163 210 194 224 222 226 280 182 221 203 205 233 222 192 172 216 188 209 230 226 232 233 240 216 168 257 220 294 195 12 254 174 122 188 84 82 231 228 215 227 236 245 253 218 168 254 255 246 235 202 203 191 205 213 233 199 88 255 252 245 248 263 255 212 223 205 209 199 189 193 185 184 181 178 172 173 177
217 213 194 176 170 193 208 212 200 203 220 185 228 208 237 204 202 221 169 210 138 192 210 248 209 216 198 192 196 223 230 231 211 227 228 236 225 224 23 123 198 200 146 209 204 185 169 226 236 182 238 245 248 254 252 238 237 260 263 262 222 189 197 211 226 234 219 212 243 258 257 250 256 256 217 215 200 202 199 198 197 187 172 162 162 170 178 185
227 30 212 167 227 191 205 197 188 196 214 207 240 228 242 222 210 205 167 176 194 213 198 220 218 215 204 193 193 224 226 228 235 221 209 222 218 199 219 342 253 193 177 164 183 187 127 244 248 180 242 246 254 252 251 255 264 268 264 258 242 199 213 221 233 236 226 236 244 257 263 265 264 263 248 224 202 206 206 193 159 151 173 175 174 176 181 186
209 194 205 194 226 224 214 194 193 193 216 206 216 227 227 223 229 196 210 170 201 219 198 219 228 208 200 203 208 222 222 213 207 210 216 213 228 194 223 203 129 6 166 195 158 268 165 253 218 184 244 259 260 252 235 240 246 261 262 259 244 240 237 231 236 244 241 246 251 251 258 268 269 263 257 245 194 193 162 165 183 183 173 178 178 180 185 186
199 191 140 166 207 220 197 177 193 200 210 211 217 235 234 218 235 205 211 203 206 199 183 212 220 210 195 210 218 227 228 219 216 226 212 178 211 201 179 245 155 158 175 176 156 261 187 262 72 100 243 266 268 220 231 264 267 261 268 266 247 233 243 237 227 234 225 235 241 251 260 259 261 273 246 222 164 171 184 186 180 185 184 176 179 183 184 187
215 94 176 154 219 188 211 182 203 178 221 215 213 221 219 216 229 175 231 229 233 222 202 214 219 206 209 214 223 226 226 219 219 232 228 197 222 95 215 164 168 164 171 192 160 169 192 156 174 159 223 251 280 104 105 127 283 281 257 256 243 225 228 236 237 237 231 229 240 246 241 244 255 328 234 203 185 193 187 186 185 183 182 178 181 182 183 183